[[{"header":{"parameterUnit":"m.s-1","parameterCategory":1,"la1":30.2991,"la2":30.254,"lo1":-89.0895,"lo2":-89.0444,"dy":0.0017,"dx":0.0017,"nx":28,"ny":28,"refTime":"2025-05-29T21:00:00:Z","depth":0,"parameterNumber":2,"parameterNumberName":"U-component_of_WINDS"},"data":[0,0,0,0,0,0,0,0,0,0,0,0,0,0,0,0,0,0,0,0,0,0,0,0,0,0,0,0,0,0,0,0,0,0,0,0,0,0,0,0,0,0,0,0,0,0,0,0,0,0,0,0,0,0,0,0,0,0,4.0256,4.0257,0,4.038,4.0382,4.0383,4.0383,4.0381,4.0379,4.0378,4.0504,4.0509,4.0514,0,0,0,0,0,0,0,0,0,0,0,0,0,4.0017,4.0021,4.0256,4.0257,4.0259,4.038,4.0382,4.0383,4.0383,4.0381,4.0379,4.0377,4.0503,4.0508,4.0514,0,0,0,0,0,0,0,0,0,0,0,0,0,4.0129,4.0023,4.0255,4.0273,4.0276,4.038,4.0382,4.0384,4.0383,4.0381,4.0378,4.0376,4.0501,4.0508,4.0515,4.0609,0,0,4.0537,4.054,0,0,0,0,0,0,0,0,4.0123,4.0138,4.0269,4.0272,4.0276,4.0363,4.0344,4.0459,4.0384,4.0343,4.0378,4.0375,4.0459,4.047,4.0498,4.0615,4.062,4.0538,4.0542,4.0546,4.0548,0,0,0,0,0,0,0,4.0115,4.0132,4.0305,4.0271,4.0275,4.0275,4.0288,4.0366,4.0413,4.0346,4.0346,4.0361,4.046,4.0491,4.0501,4.0622,4.0538,4.0544,4.0549,4.0552,4.0824,4.0827,0,0,0,0,0,0,4.0104,4.0126,4.0301,4.0309,4.0192,4.0281,4.0296,4.0338,4.0412,4.0421,4.0363,4.0361,4.048,4.0493,4.0506,4.0623,4.0545,4.0552,4.0557,4.0821,4.0825,4.0828,0,0,0,0,0,0,4.0099,4.0119,4.0296,4.0218,4.024,4.0288,4.0335,4.0341,4.0372,4.0425,4.0433,4.0386,4.0479,4.0496,4.0584,4.0627,4.0556,4.0562,4.0818,4.0822,4.0826,4.0856,0,0,0,0,0,0,4.0092,4.0117,4.0154,4.0218,4.0244,4.0372,4.0337,4.0346,4.0385,4.0383,4.0449,4.0457,4.0478,4.0573,4.0591,4.0636,4.0568,4.0814,4.082,4.0825,4.0851,4.086,4.0868,0,0,0,0,0,4.0083,4.0156,4.0155,4.0177,4.029,4.0375,4.0389,4.0412,4.0388,4.0426,4.046,4.0455,4.0619,4.0582,4.0602,4.065,4.0812,4.0818,4.0824,4.0847,4.0859,4.0868,0,0,0,0,0,0,4.0094,4.0165,4.0165,4.0261,4.0312,4.0374,4.0422,4.0423,4.0481,4.0477,4.0502,4.0517,4.0606,4.0636,4.0594,4.0746,4.0712,4.0723,4.0723,4.0734,4.0743,4.0734,4.0574,0,0,0,0,0,4.0108,4.0171,4.0229,4.0308,4.0334,4.0373,4.0411,4.0424,4.0477,4.0499,4.0539,4.0591,4.0655,4.0696,4.0757,4.0855,4.087,4.0898,4.0906,4.0913,4.0923,4.0979,4.0993,4.0849,4.0849,4.0848,0,0,4.0137,4.0183,4.0221,4.0312,4.0353,4.0417,4.0391,4.046,4.0509,4.0509,4.0596,4.0627,4.0687,4.0781,4.0825,4.081,4.0966,4.0921,4.0927,4.0933,4.0987,4.1001,4.1013,4.0853,4.0852,4.0852,0,0,4.0224,4.0264,4.0336,4.0378,4.0441,4.0467,4.0484,4.0546,4.0568,4.0655,4.0657,4.0715,4.0823,4.0866,4.0902,4.1006,4.1005,4.1025,4.1071,4.1126,4.1137,4.1147,4.1186,4.12,4.1034,4.1034,4.1034,0,4.0252,4.035,4.0372,4.0443,4.0483,4.0487,4.056,4.0599,4.0678,4.0706,4.0688,4.0825,4.0865,4.0971,4.0996,4.1025,4.1046,4.1018,4.1133,4.1144,4.1154,4.1192,4.1206,4.1036,4.1036,4.1036,4.1036,0,4.0382,4.045,4.05,4.0578,4.0624,4.0695,4.0729,4.0772,4.0781,4.0809,4.0899,4.0947,4.1019,4.1045,4.1054,4.1153,4.1142,4.1128,4.1095,4.117,4.1205,4.122,4.1039,4.1039,4.1038,4.1037,0,0,4.048,4.057,4.0588,4.0624,4.0694,4.0747,4.0818,4.089,4.0927,4.0982,4.1043,4.1135,4.1124,4.1165,4.1179,4.1227,4.1309,4.1208,4.1209,4.1226,4.1422,4.1434,4.145,4.1308,4.131,4.1313,4.1418,0,4.0575,4.0704,4.0727,4.0838,4.0902,4.0907,4.097,4.102,4.1048,4.1106,4.1137,4.1203,4.1181,4.1206,4.1254,4.1289,4.1349,4.1281,4.1366,4.1369,4.1353,4.1468,4.148,4.1577,4.1432,4.1434,4.1436,0,4.0704,4.0763,4.0882,4.0945,4.0973,4.1028,4.1096,4.1151,4.1208,4.1226,4.1272,4.1281,4.1356,4.1319,4.1424,4.1377,4.1413,4.1436,4.144,4.1451,4.1408,4.1484,4.1609,4.1624,4.1458,4.1456,4.1455,0,4.0766,4.0875,4.0961,4.0991,4.1066,4.1106,4.1139,4.1193,4.1235,4.1294,4.1322,4.1388,4.1425,4.1477,4.1504,4.1474,4.1607,4.1572,4.1625,4.1624,4.1654,4.1652,4.1789,4.1674,4.1674,4.1673,4.1673,0,4.0872,4.0945,4.099,4.1043,4.1125,4.1151,4.1231,4.1263,4.1312,4.1372,4.1379,4.1435,4.1466,4.1527,4.1548,4.1633,4.1649,4.1666,4.1671,4.1666,4.1664,4.1692,4.1686,4.1677,4.1677,4.1676,4.1675,0,4.0956,4.0989,4.1083,4.1147,4.1164,4.1222,4.1277,4.1329,4.1356,4.1432,4.1451,4.1495,4.1567,4.1599,4.1687,4.1701,4.1799,4.1798,4.178,4.1782,4.1834,4.183,4.1995,4.2019,4.1886,4.1887,4.1888,0,4.1022,4.1079,4.1149,4.119,4.1224,4.1289,4.1332,4.1359,4.1404,4.1474,4.1517,4.1589,4.1649,4.1763,4.1803,4.1871,4.1873,4.1926,4.1884,4.1878,4.1877,4.1874,4.1881,4.1935,4.1936,4.1937,4.1938,0,4.1137,4.1151,4.1213,4.1282,4.1333,4.1388,4.1441,4.1474,4.151,4.1559,4.1633,4.1679,4.177,4.1842,4.1913,4.1947,4.1949,4.1951,4.1967,4.1964,4.1953,4.1962,4.1804,4.1947,4.1947,4.1946,4.1945,4.1945,4.1216,4.1268,4.1325,4.1394,4.1438,4.1488,4.1541,4.1575,4.1638,4.1714,4.1726,4.1805,4.1862,4.1957,4.1994,4.2056,4.2044,4.2066,4.2073,4.2079,4.2083,4.1941,4.2069,4.2069,4.2069,4.2068,4.2068,0,4.1334,4.1371,4.1434,4.151,4.1565,4.1562,4.1621,4.1667,4.1737,4.179,4.1848,4.1934,4.2004,4.205,4.2121,4.2162,4.2166,4.218,4.2179,4.2187,4.2089,4.2069,4.2177,4.2177,4.2177,4.2177,4.2177,4.2177,4.1401,4.1489,4.1509,4.1618,4.1655,4.1734,4.1768,4.1815,4.1857,4.1953,4.2011,4.2041,4.2091,4.2166,4.2231,4.2242,4.2269,4.2285,4.2296,4.2205,4.2193,4.2183,4.2164,4.229,4.229,4.2389,4.239,4.2391]},{"header":{"parameterUnit":"m.s-1","parameterCategory":1,"la1":30.2991,"la2":30.254,"lo1":-89.0895,"lo2":-89.0444,"dy":0.0017,"dx":0.0017,"nx":28,"ny":28,"refTime":"2025-05-29T21:00:00:Z","depth":0,"parameterNumber":3,"parameterNumberName":"V-component_of_WINDS"},"data":[0,0,0,0,0,0,0,0,0,0,0,0,0,0,0,0,0,0,0,0,0,0,0,0,0,0,0,0,0,0,0,0,0,0,0,0,0,0,0,0,0,0,0,0,0,0,0,0,0,0,0,0,0,0,0,0,0,0,-0.283,-0.283,0,-0.2833,-0.2833,-0.2834,-0.2851,-0.2851,-0.2851,-0.2852,-0.2853,-0.2853,-0.2853,0,0,0,0,0,0,0,0,0,0,0,0,0,-0.2836,-0.2836,-0.283,-0.283,-0.283,-0.2833,-0.2833,-0.2834,-0.2851,-0.2851,-0.2852,-0.2852,-0.2853,-0.2853,-0.2853,0,0,0,0,0,0,0,0,0,0,0,0,0,-0.2836,-0.2836,-0.283,-0.2839,-0.284,-0.2833,-0.2833,-0.2834,-0.285,-0.2851,-0.2852,-0.2852,-0.2854,-0.2853,-0.2853,-0.2837,0,0,-0.2851,-0.2851,0,0,0,0,0,0,0,0,-0.2836,-0.2836,-0.2838,-0.2838,-0.2839,-0.2842,-0.2836,-0.2835,-0.285,-0.2846,-0.2852,-0.2853,-0.2849,-0.2849,-0.2848,-0.2837,-0.2837,-0.2851,-0.2851,-0.285,-0.285,0,0,0,0,0,0,0,-0.2836,-0.2836,-0.2831,-0.2838,-0.2839,-0.2842,-0.2843,-0.2836,-0.2844,-0.2847,-0.2848,-0.2848,-0.285,-0.2849,-0.2848,-0.2837,-0.2851,-0.2851,-0.285,-0.285,-0.2813,-0.2813,0,0,0,0,0,0,-0.2835,-0.2836,-0.2831,-0.2831,-0.2839,-0.2842,-0.2842,-0.2841,-0.2844,-0.2845,-0.2848,-0.2849,-0.2849,-0.2849,-0.2848,-0.283,-0.285,-0.285,-0.285,-0.2814,-0.2813,-0.2812,0,0,0,0,0,0,-0.2835,-0.2834,-0.2831,-0.2834,-0.2834,-0.2841,-0.2839,-0.284,-0.2839,-0.2845,-0.2846,-0.2845,-0.285,-0.2849,-0.284,-0.283,-0.285,-0.2849,-0.2815,-0.2814,-0.2813,-0.2793,0,0,0,0,0,0,-0.2835,-0.2834,-0.2829,-0.2834,-0.2833,-0.2823,-0.2838,-0.284,-0.2839,-0.2841,-0.2843,-0.2844,-0.285,-0.2841,-0.2839,-0.283,-0.2849,-0.2816,-0.2814,-0.2813,-0.2795,-0.2792,-0.2789,0,0,0,0,0,-0.2835,-0.2823,-0.2829,-0.2828,-0.2827,-0.2822,-0.2822,-0.283,-0.2838,-0.2832,-0.2836,-0.2844,-0.2832,-0.2839,-0.2838,-0.2829,-0.2816,-0.2815,-0.2813,-0.2796,-0.2793,-0.2789,0,0,0,0,0,0,-0.2816,-0.2824,-0.283,-0.2819,-0.282,-0.2825,-0.2818,-0.2826,-0.2824,-0.2825,-0.2834,-0.2835,-0.2824,-0.2826,-0.2834,-0.2814,-0.2825,-0.2824,-0.2813,-0.2809,-0.2807,-0.2806,-0.2848,0,0,0,0,0,-0.2811,-0.2807,-0.2814,-0.2803,-0.2803,-0.2811,-0.2809,-0.2815,-0.2816,-0.2816,-0.2819,-0.2819,-0.2816,-0.2813,-0.281,-0.2796,-0.2796,-0.2788,-0.2786,-0.2783,-0.2781,-0.2773,-0.277,-0.2808,-0.2808,-0.2808,0,0,-0.2799,-0.2803,-0.28,-0.2799,-0.2801,-0.2796,-0.2811,-0.2805,-0.2801,-0.2815,-0.2806,-0.2809,-0.281,-0.2798,-0.2793,-0.2799,-0.2771,-0.2781,-0.2779,-0.2779,-0.2771,-0.2768,-0.2765,-0.2807,-0.2807,-0.2807,0,0,-0.2776,-0.2779,-0.277,-0.2771,-0.2774,-0.2779,-0.2777,-0.2781,-0.2783,-0.2775,-0.2785,-0.278,-0.2774,-0.2774,-0.2773,-0.275,-0.2757,-0.2749,-0.2733,-0.2726,-0.2723,-0.272,-0.2711,-0.2708,-0.2747,-0.2747,-0.2747,0,-0.2761,-0.2755,-0.2764,-0.2758,-0.2757,-0.2771,-0.2761,-0.2762,-0.2763,-0.2762,-0.2769,-0.2761,-0.2762,-0.275,-0.2745,-0.2744,-0.2741,-0.2748,-0.2722,-0.272,-0.2718,-0.2709,-0.2706,-0.2746,-0.2746,-0.2746,-0.2746,0,-0.2736,-0.2732,-0.2724,-0.2725,-0.2724,-0.2716,-0.2724,-0.2721,-0.2728,-0.2732,-0.2723,-0.2725,-0.2723,-0.272,-0.2726,-0.2709,-0.2713,-0.2721,-0.2733,-0.2713,-0.2705,-0.2702,-0.2744,-0.2744,-0.2745,-0.2745,0,0,-0.27,-0.2707,-0.2704,-0.2704,-0.2708,-0.2704,-0.2697,-0.2695,-0.2693,-0.2693,-0.2686,-0.2681,-0.2689,-0.2687,-0.2693,-0.2687,-0.2667,-0.2696,-0.2696,-0.269,-0.2648,-0.2641,-0.2637,-0.2673,-0.2672,-0.2672,-0.2647,0,-0.2677,-0.2665,-0.2674,-0.2661,-0.2656,-0.2669,-0.2662,-0.2664,-0.2667,-0.2664,-0.2668,-0.2663,-0.2674,-0.2674,-0.2668,-0.2671,-0.2659,-0.2673,-0.2666,-0.2665,-0.2664,-0.2633,-0.2625,-0.2602,-0.2645,-0.2644,-0.2644,0,-0.2648,-0.2648,-0.2634,-0.2638,-0.2637,-0.2631,-0.263,-0.2627,-0.2628,-0.2631,-0.263,-0.2638,-0.2631,-0.2643,-0.2633,-0.2642,-0.264,-0.2641,-0.264,-0.2639,-0.2652,-0.263,-0.2595,-0.2591,-0.2639,-0.2639,-0.264,0,-0.2622,-0.2618,-0.2609,-0.2609,-0.2615,-0.261,-0.2612,-0.2614,-0.2612,-0.2611,-0.261,-0.2608,-0.2607,-0.2604,-0.2611,-0.262,-0.2599,-0.2613,-0.2601,-0.26,-0.2595,-0.2595,-0.2558,-0.2595,-0.2595,-0.2595,-0.2595,0,-0.2594,-0.2585,-0.2597,-0.2592,-0.2582,-0.2592,-0.2581,-0.2585,-0.2587,-0.2581,-0.2592,-0.2587,-0.2597,-0.2592,-0.2598,-0.2587,-0.2587,-0.2589,-0.259,-0.2587,-0.2587,-0.2585,-0.2586,-0.2594,-0.2595,-0.2595,-0.2595,0,-0.2563,-0.2571,-0.2562,-0.2568,-0.2569,-0.2561,-0.2566,-0.2561,-0.2566,-0.2559,-0.2558,-0.2565,-0.2561,-0.2568,-0.2563,-0.2567,-0.2553,-0.2557,-0.2552,-0.2553,-0.2541,-0.2541,-0.2501,-0.2495,-0.2537,-0.2536,-0.2536,0,-0.2544,-0.2538,-0.2543,-0.2541,-0.2542,-0.2538,-0.2537,-0.2546,-0.2544,-0.2546,-0.254,-0.2536,-0.2534,-0.2526,-0.253,-0.2527,-0.2531,-0.2517,-0.253,-0.2527,-0.2529,-0.2529,-0.2528,-0.2513,-0.2513,-0.2513,-0.2512,0,-0.251,-0.2514,-0.2512,-0.2511,-0.2509,-0.2509,-0.2509,-0.2506,-0.2516,-0.2513,-0.2509,-0.2507,-0.2503,-0.2499,-0.2497,-0.2499,-0.2506,-0.2508,-0.2505,-0.2501,-0.2498,-0.2499,-0.2544,-0.2509,-0.2509,-0.2509,-0.251,-0.251,-0.2484,-0.2478,-0.2481,-0.2478,-0.248,-0.248,-0.2475,-0.248,-0.2477,-0.2474,-0.248,-0.2475,-0.2476,-0.2474,-0.2475,-0.247,-0.2476,-0.2472,-0.247,-0.2469,-0.2466,-0.25,-0.247,-0.247,-0.247,-0.247,-0.247,0,-0.2449,-0.2452,-0.2449,-0.245,-0.2447,-0.2456,-0.2457,-0.2454,-0.2449,-0.245,-0.2448,-0.2442,-0.2439,-0.2443,-0.244,-0.2435,-0.2439,-0.2434,-0.2434,-0.2433,-0.2462,-0.2464,-0.2431,-0.2431,-0.2431,-0.2431,-0.2431,-0.2431,-0.2431,-0.2422,-0.2427,-0.2419,-0.2421,-0.2416,-0.2416,-0.2416,-0.2416,-0.241,-0.2408,-0.2411,-0.2413,-0.241,-0.2407,-0.2408,-0.2406,-0.24,-0.2402,-0.2428,-0.2432,-0.2435,-0.2438,-0.2399,-0.2399,-0.2374,-0.2374,-0.2374]}]]